Regional Weather Roundup
Issued by NWS Jackson, KY

Home | Current Version | Previous Version | Graphics & Text | Print | Product List | Glossary On
Versions: 1 2 3 4 5 6 7 8 9 10 11 12 13 14 15 16 17 18 19 20 21 22 23 24 25 26 27 28 29 30 31 32 33 34 35 36 37 38 39 40 41 42 43 44 45 46 47 48 49 50
000
ASUS43 KJKL 200910
RWRJKL

EAST KENTUCKY HOURLY WEATHER ROUNDUP
NATIONAL WEATHER SERVICE JACKSON KY
500 AM EDT WED SEP 20 2017

NOTE: "FAIR" INDICATES FEW OR NO CLOUDS BELOW 12,000 FEET WITH
NO SIGNIFICANT WEATHER AND/OR OBSTRUCTIONS TO VISIBILITY.

* THESE REPORTS ARE NOT UNDER NWS QUALITY CONTROL AND MAY NOT
  REPORT WEATHER SUCH AS PRECIPITATION AND FOG.

KYZ079-080-083-085-087-088-110-112-115-119-120-201000
...EASTERN KENTUCKY...

CITY           SKY/WX    TMP DP  RH WIND       PRES   REMARKS
JACKSON        FOG       67  66  97 CALM      30.01S VSB 1/4
LONDON         MOCLDY    62  61  96 CALM      30.02R FOG
SOMERSET*      FOG       61  61 100 CALM      30.02S VSB 1/2
WILLIAMSBURG*  CLOUDY    63  63 100 CALM      30.02R VSB<1/4
MIDDLESBORO*   CLOUDY    61  61 100 CALM      30.03S FOG
HARLAN APT*    CLOUDY    64  63  94 CALM      30.04S VSB 1/4
PIKE CO APT*   FOG       63  63 100 CALM      30.02S VSB 1
BIG SANDY APT* FOG       65  65 100 CALM      30.02R VSB<1/4
MOREHEAD APT*  FOG       64  63  94 CALM      30.01S VSB<1/4
$$

KYZ035-036-041-042-044-050-067-078-099-201000
...CENTRAL KENTUCKY...

CITY           SKY/WX    TMP DP  RH WIND       PRES   REMARKS
MT STERLING*   FOG       64  64 100 SW3       30.01S VSB 1/2
FLEMING/MASON* FOG       64  64 100 CALM      30.00S VSB 1/2
DANVILLE*      PTCLDY    63  63 100 CALM      30.01S FOG
LEXINGTON      CLEAR     66  64  93 SW5       29.99S FOG
FRANKFORT      FOG       63  60  90 CALM      29.97S VSB 1/2
LOUISVILLE     MOCLDY    68  67  96 E6        29.96R FOG
LEBANON*         N/A     66  66 100 S6        29.99S
GLASGOW*       CLEAR    N/A N/A N/A CALM      29.98S HAZE
BOWLING GREEN  FOG       66  66 100 CALM      29.97R VSB 1/2
$$

KYZ091>093-OHZ055-061-077-WVZ005-015-034-035-042-201000
...SOUTHERN OHIO/WEST VIRGINIA...

CITY           SKY/WX    TMP DP  RH WIND       PRES   REMARKS
COVINGTON      PTCLDY    62  62 100 S5        29.98R FOG
COLUMBUS       CLOUDY    70  66  87 CALM      29.97R
DAYTON         MOCLDY    65  64  97 S5        29.98S FOG
WILMINGTON     FOG       60  60 100 CALM      29.98S VSB 1/4
HUNTINGTON     MOCLDY    67  65  93 CALM      29.99R FOG
CHARLESTON     MOCLDY    64  63  96 CALM      30.00R
PINEVILLE*     MOCLDY    61  60  96 MISG      30.09R FOG
BECKLEY        PTCLDY    62  60  93 CALM      30.06R
BLUEFIELD      PTCLDY    60  58  92 W5        30.08S
LOGAN CO APT*  PTSUNNY   64  64 100 CALM      30.02R
$$

VAZ002-007-008-TNZ017-027-036-066-071-201000
...SOUTHWEST VIRGINIA/EAST TENNESSEE...

CITY           SKY/WX    TMP DP  RH WIND       PRES   REMARKS
WISE*          PTCLDY    63  63 100 CALM      30.09S FOG
JONESVILLE*    FOG       63  63 100 CALM      30.06R VSB<1/4
ABINGDON*      CLEAR     62  62  99 E3        30.06S
BRISTOL        CLEAR     59  59 100 CALM      30.04R FOG
MORRISTOWN*    SUNNY     63  61  94 CALM      30.02R
SEVIERVILLE*   SUNNY     59  59 100 CALM      30.02R
KNOXVILLE      PTCLDY    63  61  93 CALM      30.01R
LAFOLLETTE*    FOG       64  64 100 NE5       30.06R VSB 0
OAK RIDGE      CLOUDY    63  61  93 CALM      30.03R
CROSSVILLE     CLEAR     63  61  93 CALM      30.05S
NASHVILLE      CLEAR     69  65  86 CALM      29.98S
$$

...KEY TO REMARKS...
VSB - VISIBILITY IN MILES
WCI - WIND CHILL INDEX
HX  - HEAT INDEX

$$



USA.gov is the U.S. government's official web portal to all federal, state and local government web resources and services.